Location: A�t Bou Chrif
(32.7193°N, 5.2385°W)
Time: 04:16:26
(UTC+00:00)

Cosmos 1707 Rocket - Pass Details

Date: 08 August 2020
Orbit: 604 x 632 km, 82.5° (Epoch: 20 September)

Event Time Altitude Azimuth Distance (km) Brightness Sun altitude
Rises 21:06:37 0° 357° (N) 2,871 7.6 -21.9°
Reaches altitude 10° 21:08:52 10° 0° (N) 1,961 6.6 -22.3°
Enters shadow 21:12:55 64° 61° (ENE) 674 3.5 -23.0°
